Location: Colle San Luigi
(43.5500°N, 13.4167°E)
Time: 02:42:41
(UTC+00:00)

Cosmos 2278 - Pass Details

Date: 09 April 2020
Orbit: 840 x 852 km, 71.1° (Epoch: 29 May)

Event Time Altitude Azimuth Distance (km) Brightness Sun altitude
Rises 20:24:23 0° 340° (NNW) 3,405 7.8 -26.6°
Reaches altitude 10° 20:27:00 10° 348° (NNW) 2,468 6.8 -26.9°
Enters shadow 20:32:00 40° 49° (NE) 1,235 4.4 -27.6°
